Location: Canazei
(46.4667°N, 11.7667°E)
Time: 05:33:20
(UTC+00:00)

Cosmos 1459 Rocket - Pass Details

Date: 21 April 2021
Orbit: 938 x 999 km, 83.0° (Epoch: 14 May)

Event Time Altitude Azimuth Distance (km) Brightness Sun altitude
Rises 02:59:01 0° 353° (N) 3,733 7.4 -12.7°
Reaches altitude 10° 03:01:35 10° 355° (N) 2,779 6.8 -12.3°
Maximum altitude 03:07:58 70° 79° (E) 1,057 4.4 -11.4°
Drops below altitude 10° 03:14:15 10° 163° (SSE) 2,738 6.2 -10.4°
Sets 03:16:45 0° 166° (SSE) 3,675 6.9 -10.0°
